Showing default

WORLDVIEW 2, 35946

Orbit data source: Space-Track

WORLDVIEW 2, 35946 is a payload satellite owned by DigitalGlobe (US) in SSO that was launched on Thu, 08 Oct 2009 UTC via a DELTA 7920-10C launch vehicle from the Air Force Western Test Range (AFWTR). Payload-class satellites include a variety of spacecraft equipped with specific instruments for various scientific and technological missions. These include communications satellites like Starlink; space stations such as the ISS; scientific satellites like the Hubble; Earth observation satellites from companies like Planet Labs, Umbra, and HawkEye 360; GPS; miniature CubeSats for education and research; and military/defense satellites.

Loading next visibility...
Identifier
35946, 2009-055A
Orbit
SSO
Country
Flag of USUS
Related business
Manufacturer
Ball
Mission
Operational Commercial Imaging
Bus & Motor
BCP-5000, Unknown motor
Mass
2,615 kg wet, ~2,200 kg dry
Launch date (UTC)
2009-10-08 (17 years ago)
Launch vehicle
DELTA 7920-10C
Launch site
Air Force Western Test Range (AFWTR)
Object type
Payload
Rocket body
Debris
Shape & HBR
Hex Cyl + 2 Pan, 4.4 m
Radar Cross Section
13.188 m², Large (>1 m²)

Expand to show TLE details & history
Last TLE update: 10 hours ago

TLE from 10 hours ago
0 WORLDVIEW 2
1 35946U 09055A   26238.58443490  .00000100  00000-0  47662-4 0  9994
2 35946  98.4748 311.0706 0004711  27.7937 332.3501 14.37916210885760
Epoch: 2026-08-26T14:01Z
TLE epoch observation values (Epoch: 2026-08-26T14:01:35.175Z)
Latitude
-0.00002°
Longitude
125.83871°
Altitude
765.357 km
Speed
7.473 km/s
True Right ascension
20h 44m 16s
True Declination
0° 00' 00"
Sunlit
Object was in full shadow at epoch
Visualization orbit readout
Latitude
Unknown
Longitude
Unknown
Altitude
Unknown
Speed
Unknown
Apparent Right ascension
Unknown
Apparent Declination
Unknown
Sunlit
N/A
Visualization observer readout
Local Sidereal Time
15:13:45
Azimuth
Unknown
Elevation
Unknown
Doppler factor
Unknown
Orbital elements
Apogee altitude
765.879 km
Perigee altitude
759.151 km
Semi-major axis
7,140.652 km
Eccentricity
0.00047
Inclination
98.4748°
RAAN
311.0706°
Arg. of periapsis
27.7937°
True anomaly
332.32503°
Mean anomaly
332.3501°
Eccentric anomaly
332.33757°
Mean motion
3.59697 °/min
Orbital period
100.08 mins
BSTAR
0.000047662
Loading maneuver chart data...
Computing Atmospheric mass density...

Documentation

Showing up to 5 results
|